Location: Cicognara
(44.9500°N, 10.4667°E)
Time: 09:22:55
(UTC+00:00)

Cosmos 2278 Rocket - Pass Details

Date: 20 June 2021
Orbit: 840 x 847 km, 71.0° (Epoch: 04 August)

Event Time Altitude Azimuth Distance (km) Brightness Sun altitude
Rises 21:09:25 0° 337° (NNW) 3,411 7.2 -15.4°
Reaches altitude 10° 21:11:57 10° 343° (NNW) 2,473 5.9 -15.6°
Maximum altitude 21:17:28 51° 59° (ENE) 1,056 2.7 -16.1°
Enters shadow 21:20:52 23° 126° (SE) 1,734 3.3 -16.4°
